Погода в Завражье

Россия / Костромская область     57°24′35″N   43°09′12″E
темп.,
°C
ветер,
м/с
пор.,
м/с
влажн.,
%
обл.,
%
осадки,
мм/ч
давл.,
гПа
погр.,
м
15 апреля, чт
чт1500:00+8ю2284100 0.0 101929
03:00+7ю2283100 0.0 101913
06:00+5ссз1195100 0.0 101914
09:00+13ссв126789 0.0 1019199
12:00+16ссв345799 0.0 1019739
15:00+13ссв6878100 0.0 1021653
18:00+9св61183100 0.0 1023580
21:00+6св61384100 0.0 1024558
16 апреля, пт
пт1600:00+5св5148197 0.0 1025569
03:00+4св5138389 0.0 1026553
06:00+3св51283100 0.0 1027516
09:00+6всв596157 0.0 1028629
12:00+10всв574925 0.0 10281002
15:00+12всв574055 0.0 10271177
18:00+10всв484919 0.0 1028822
21:00+5всв411685 0.0 1029359
17 апреля, сб
сб1700:00+3всв311765 0.0 1030284
03:00+2св310815 0.0 1030224
06:00+1всв310795 0.0 1031255
09:00+8всв48505 0.0 1031714
12:00+11всв46385 0.0 10301293
15:00+12всв46370 0.0 10291473
18:00+11всв37471 0.0 1028378
21:00+6св38700 0.0 1029151
18 апреля, вс
вс1800:00+4св37780 0.0 1028139
03:00+2св38842 0.0 1029172
06:00+2св3981100 0.0 1029218
09:00+8св4656100 0.0 1028587
12:00+11св4643100 0.0 10281346
15:00+12св5743100 0.0 10271791
18:00+8всв5964100 0.0 1029949
21:00+4всв31070100 0.0 1030507
19 апреля, пн
пн1900:00+3всв4116199 0.0 1031488
03:00+1всв411685 0.0 1032398
06:000всв411670 0.0 1033452
09:00+5в58400 0.0 10341266
12:00+7в57310 0.0 10341713
15:00+8в46335 0.0 10331873
18:00+7в46415 0.0 10341077
21:00+2в28610 0.0 1035172